Simultaneous Nadir Overpasses (SNOs) Predictions

Prediction of SNOs between NOAA-20 and AQUA Satellite Orbit:

Table of predicted SNOs for the next 14.0 days since TLE Epoch: 2/13/2021
Index Date (NOAA-20) Time (NOAA-20) Lat,Lon (NOAA-20) SZA (NOAA-20 ) Date (AQUA) Time (AQUA) Lat,Lon (AQUA) SZA (AQUA ) Distance(km) Time Diff (sec)
1 02/13/2021 22:13:13 75.49, 84.16 111.28 02/13/2021 22:13:32 75.49, 84.22 111.25 1.80 19
2 02/13/2021 23:03:38 -76.45,-105.27 69.90 02/13/2021 23:02:40 -76.46,-105.17 69.87 2.98 58
3 02/16/2021 13:39:44 -74.54, 29.89 68.52 02/16/2021 13:40:55 -74.55, 29.97 68.61 2.40 71
4 02/16/2021 14:29:59 75.91,-158.72 109.88 02/16/2021 14:29:53 75.91,-158.67 109.87 1.55 6
5 02/19/2021 05:56:28 -75.07, 147.13 70.06 02/19/2021 05:57:14 -75.07, 147.19 70.12 1.74 46
6 02/19/2021 06:46:46 76.27, -41.69 108.50 02/19/2021 06:46:15 76.27, -41.66 108.52 0.85 31
7 02/21/2021 22:13:12 -75.54, -95.68 71.57 02/21/2021 22:13:33 -75.54, -95.66 71.59 0.63 21
8 02/21/2021 23:03:32 76.62, 75.40 107.10 02/21/2021 23:02:36 76.62, 75.39 107.15 0.28 56
9 02/24/2021 13:39:35 74.86,-149.22 108.26 02/24/2021 13:40:48 74.85,-149.27 108.21 1.35 73
10 02/24/2021 14:29:56 -76.04, 21.74 73.16 02/24/2021 14:29:52 -76.04, 21.71 73.15 1.00 4



Historial Predications of SNOs between NOAA-20 and AQUA
